Home   Weather   Annapolis County   Past weeks

Flag for Canada Past Weather in Annapolis County, Nova Scotia, Canada — Yesterday and Last 2 Weeks

Now
52 °F

Cool.


Feels Like: 50 °F
Forecast: 44 / 53 °F
Wind: 7 mph from Northwest

Location: Kejimkujik 1

Current Time: Sep 25, 2016 at 2:25:21 PM

Latest Report: Sep 25, 2016 at 2:00 PM


Visibility: N/A

Pressure: 29.91 "Hg

Humidity: 55%

Dew Point: 36 °F

Location of Annapolis CountyLocation

Past Weather in Annapolis County — Graph

°F

Annapolis County Temperature Yesterday

Maximum temperature yesterday: 58 °F (at 12:00 PM)
Minimum temperature yesterday: 39 °F (at 11:00 PM)
Average temperature yesterday: 48 °F

High & Low Weather Summary for the Past Weeks

 TemperatureHumidityPressure
High82 °F (Sep 10, 4:00 PM)100% (Sep 15, 4:00 AM)30.37 "Hg (Sep 15, 4:00 AM)
Low35 °F (Sep 25, 5:00 AM)35% (Sep 13, 4:00 PM)29.81 "Hg (Sep 11, 6:00 PM)
Average60 °F79%30.08 "Hg
* Reported Sep 10 1:00 PM — Sep 25 1:00 PM, Annapolis County, Weather by CustomWeather, © 2016

Note: Actual official high and low records may vary slightly from our data, if they occured in-between our weather recording intervals... More about our weather records

Advertising

Annapolis County Weather History for the Previous 24 Hours

Scroll right to see more
 ConditionsComfort  
Time TempWeatherWind HumidityBarometerVisibility
1:00 PM
Sun, Sep 25
53 °FCool.7 mph60%29.90 "HgN/A
12:00 PM49 °FCool.7 mph67%29.90 "HgN/A
11:00 AM47 °FCool.5 mph79%29.90 "HgN/A
10:00 AM44 °FQuite cool.3 mph90%29.90 "HgN/A
9:00 AM42 °FQuite cool.3 mph88%29.90 "HgN/A
8:00 AM37 °FChilly.2 mph96%29.90 "HgN/A
7:00 AM35 °FChilly.2 mph95%29.89 "HgN/A
6:00 AM36 °FChilly.2 mph95%29.88 "HgN/A
5:00 AM35 °FChilly.2 mph94%29.88 "HgN/A
4:00 AM36 °FChilly.3 mph94%29.89 "HgN/A
3:00 AM37 °FChilly.3 mph94%29.90 "HgN/A
2:00 AM37 °FChilly.3 mph93%29.90 "HgN/A
1:00 AM38 °FChilly.3 mph93%29.90 "HgN/A
12:00 AM38 °FChilly.3 mph92%29.91 "HgN/A
11:00 PM
Sat, Sep 24
39 °FChilly.3 mph90%29.93 "HgN/A
10:00 PM41 °FQuite cool.2 mph89%29.94 "HgN/A
9:00 PM43 °FQuite cool.3 mph84%29.94 "HgN/A
8:00 PM44 °FQuite cool.3 mph79%29.94 "HgN/A
7:00 PM49 °FCool.2 mph65%29.94 "HgN/A
6:00 PM52 °FCool.6 mph57%29.93 "HgN/A
5:00 PM55 °FCool.6 mph51%29.92 "HgN/A
4:00 PM55 °FCool.6 mph49%29.92 "HgN/A
3:00 PM54 °FCool.6 mph60%29.93 "HgN/A
2:00 PM56 °FRefreshingly cool.7 mph59%29.93 "HgN/A
Weather by CustomWeather, © 2016

See weather overviewHow to use our weather pages